Date,TemperatureHighF,TemperatureAvgF,TemperatureLowF,DewpointHighF,DewpointAvgF,DewpointLowF,HumidityHigh,HumidityAvg,HumidityLow,PressureMaxIn,PressureMinIn,WindSpeedMaxMPH,WindSpeedAvgMPH,GustSpeedMaxMPH,PrecipitationSumIn
2013-4-1,55,42,32,46,33,13,96,74,36,29.79,29.49,16,3,24,0.21
2013-4-2,38,31,25,18,15,13,68,52,38,29.92,29.80,16,4,33,0.00
2013-4-3,45,35,26,17,13,8,61,43,23,30.17,29.92,15,4,26,0.00
2013-4-4,54,41,26,25,19,13,72,45,23,30.28,29.96,12,4,22,0.00
2013-4-5,58,44,34,32,27,21,84,55,27,29.97,29.67,14,4,21,0.00
2013-4-6,45,35,27,25,13,6,68,44,20,30.30,29.91,17,5,30,0.00
2013-4-7,57,42,24,39,29,17,81,63,38,30.29,29.90,22,7,33,0.01
2013-4-8,63,48,32,39,36,30,94,66,32,30.06,29.95,9,2,19,0.00
2013-4-9,64,53,40,51,44,38,96,71,49,30.00,29.85,12,3,23,0.08
2013-4-10,58,51,46,51,48,44,96,88,72,29.96,29.83,7,2,13,0.98
2013-4-11,46,42,36,45,38,31,95,84,60,30.13,29.85,12,4,17,0.09
2013-4-12,37,34,33,35,32,31,96,94,89,30.14,29.82,10,2,15,0.32
2013-4-13,54,42,33,42,36,32,97,83,52,29.92,29.79,7,1,14,0.49
2013-4-14,50,41,30,38,32,27,95,73,47,30.22,29.91,12,3,23,0.00
2013-4-15,59,43,26,38,32,25,94,69,40,30.36,30.23,9,2,15,0.00
2013-4-16,64,52,41,53,44,33,92,74,55,30.33,30.00,19,7,29,0.06
2013-4-17,62,53,38,52,36,28,93,58,28,30.33,30.04,16,4,22,0.02
2013-4-18,63,49,30,45,34,28,92,61,36,30.41,30.08,21,6,30,0.00
2013-4-19,70,60,51,62,55,46,95,84,74,30.07,29.56,21,7,31,0.08
2013-4-20,58,48,38,54,35,20,93,65,41,30.24,29.60,13,4,23,0.44
2013-4-21,52,40,30,26,21,17,83,48,26,30.66,30.25,18,4,24,0.00
2013-4-22,56,41,27,31,26,20,87,59,29,30.72,30.55,9,2,17,0.00
2013-4-23,42,39,31,38,34,28,88,82,74,30.58,30.16,9,3,12,0.00
2013-4-24,75,56,40,49,44,38,94,69,36,30.13,29.70,14,4,24,0.00
2013-4-25,59,50,36,49,35,27,91,59,31,30.26,29.73,17,5,27,0.03
2013-4-26,63,47,29,39,32,27,92,61,30,30.40,30.27,10,2,17,0.00
2013-4-27,66,51,33,42,35,30,93,59,26,30.41,30.23,7,1,10,0.00
2013-4-28,72,55,34,40,35,31,91,53,25,30.32,30.11,10,2,19,0.00
2013-4-29,68,56,45,46,38,31,74,50,37,30.23,30.14,15,3,20,0.00
2013-4-30,73,60,48,42,38,32,76,48,24,30.30,30.20,9,2,14,0.00